[[{"header":{"parameterUnit":"m.s-1","parameterCategory":1,"la1":30.2991,"la2":30.254,"lo1":-89.0895,"lo2":-89.0444,"dy":0.0017,"dx":0.0017,"nx":28,"ny":28,"refTime":"2025-11-04T09:00:00:Z","depth":0,"parameterNumber":2,"parameterNumberName":"U-component_of_WINDS"},"data":[0,0,0,0,0,0,0,0,0,0,0,0,0,0,0,0,0,0,0,0,0,0,0,0,0,0,0,0,0,0,0,0,0,0,0,0,0,0,0,0,0,0,0,0,0,0,0,0,0,0,0,0,0,0,0,0,0,0,-0.3487,-0.3487,0,-0.3541,-0.3542,-0.3542,-0.355,-0.3549,-0.3548,-0.3548,-0.3609,-0.3611,-0.3613,0,0,0,0,0,0,0,0,0,0,0,0,0,-0.3395,-0.3396,-0.3487,-0.3487,-0.3488,-0.3541,-0.3542,-0.3542,-0.355,-0.3549,-0.3548,-0.3548,-0.3608,-0.3611,-0.3613,0,0,0,0,0,0,0,0,0,0,0,0,0,-0.3441,-0.3397,-0.3487,-0.3498,-0.3499,-0.3541,-0.3542,-0.3543,-0.355,-0.3549,-0.3548,-0.3547,-0.3607,-0.3611,-0.3614,-0.3649,0,0,-0.3623,-0.3625,0,0,0,0,0,0,0,0,-0.3438,-0.3444,-0.3496,-0.3497,-0.3499,-0.3538,-0.3532,-0.3579,-0.355,-0.3531,-0.3548,-0.3547,-0.3586,-0.3591,-0.3603,-0.3652,-0.3655,-0.3624,-0.3626,-0.3627,-0.3628,0,0,0,0,0,0,0,-0.3435,-0.3442,-0.3508,-0.3496,-0.3498,-0.3502,-0.3508,-0.3541,-0.3563,-0.3532,-0.3533,-0.3539,-0.3587,-0.36,-0.3605,-0.3656,-0.3624,-0.3626,-0.3628,-0.363,-0.3738,-0.3738,0,0,0,0,0,0,-0.3429,-0.3439,-0.3507,-0.351,-0.3466,-0.3504,-0.3511,-0.3526,-0.3562,-0.3567,-0.354,-0.3539,-0.3595,-0.3601,-0.3607,-0.3651,-0.3627,-0.363,-0.3632,-0.3737,-0.3738,-0.3739,0,0,0,0,0,0,-0.3427,-0.3435,-0.3504,-0.3475,-0.3484,-0.3507,-0.3524,-0.3528,-0.3541,-0.3568,-0.3572,-0.3549,-0.3595,-0.3602,-0.3638,-0.3654,-0.3631,-0.3634,-0.3735,-0.3737,-0.3738,-0.374,0,0,0,0,0,0,-0.3424,-0.3434,-0.3446,-0.3475,-0.3485,-0.3533,-0.3525,-0.3529,-0.3545,-0.3545,-0.3577,-0.3582,-0.3595,-0.3634,-0.3642,-0.3657,-0.3637,-0.3734,-0.3736,-0.3738,-0.3739,-0.3741,-0.3744,0,0,0,0,0,-0.3421,-0.3446,-0.3447,-0.3455,-0.3501,-0.3534,-0.354,-0.3553,-0.3546,-0.356,-0.3578,-0.3581,-0.365,-0.3637,-0.3646,-0.3663,-0.3733,-0.3736,-0.3738,-0.3738,-0.3741,-0.3744,0,0,0,0,0,0,-0.342,-0.345,-0.3451,-0.3486,-0.3507,-0.3535,-0.3553,-0.3556,-0.3581,-0.358,-0.3597,-0.3604,-0.364,-0.3655,-0.364,-0.37,-0.3692,-0.3696,-0.3689,-0.3692,-0.3694,-0.369,-0.3639,0,0,0,0,0,-0.3424,-0.3446,-0.3472,-0.35,-0.351,-0.353,-0.3545,-0.3552,-0.3576,-0.3586,-0.3606,-0.363,-0.3658,-0.3676,-0.3703,-0.3741,-0.3749,-0.3758,-0.376,-0.3762,-0.3765,-0.3788,-0.3792,-0.3746,-0.3746,-0.3746,0,0,-0.3432,-0.3451,-0.3464,-0.35,-0.3518,-0.3543,-0.3537,-0.3564,-0.3583,-0.3591,-0.3625,-0.3641,-0.367,-0.3707,-0.3725,-0.3721,-0.378,-0.3764,-0.3766,-0.3768,-0.3791,-0.3795,-0.3799,-0.3747,-0.3747,-0.3747,0,0,-0.3459,-0.3475,-0.3501,-0.3518,-0.3544,-0.3557,-0.3563,-0.3591,-0.3601,-0.3636,-0.3642,-0.3666,-0.3713,-0.3733,-0.375,-0.3785,-0.379,-0.3794,-0.3807,-0.3828,-0.3832,-0.3835,-0.3849,-0.3853,-0.3797,-0.3797,-0.3797,0,-0.3467,-0.3503,-0.3514,-0.354,-0.3556,-0.3562,-0.3589,-0.3606,-0.3641,-0.3652,-0.3648,-0.3707,-0.3726,-0.3769,-0.3777,-0.379,-0.3799,-0.379,-0.383,-0.3834,-0.3837,-0.385,-0.3855,-0.3797,-0.3797,-0.3797,-0.3797,0,-0.3511,-0.3536,-0.3554,-0.3584,-0.3603,-0.3629,-0.3646,-0.3664,-0.367,-0.3684,-0.372,-0.3744,-0.3776,-0.3787,-0.3794,-0.3831,-0.3828,-0.3826,-0.3818,-0.3842,-0.3854,-0.3859,-0.3798,-0.3798,-0.3798,-0.3798,0,0,-0.354,-0.3576,-0.3583,-0.3597,-0.3626,-0.3647,-0.3674,-0.3704,-0.3719,-0.3743,-0.3767,-0.3806,-0.3805,-0.3824,-0.3834,-0.3853,-0.3881,-0.3849,-0.385,-0.3855,-0.3924,-0.3925,-0.3931,-0.3883,-0.3884,-0.3885,-0.3922,0,-0.3571,-0.3618,-0.3629,-0.367,-0.3694,-0.37,-0.3725,-0.3746,-0.376,-0.3784,-0.38,-0.3828,-0.3824,-0.3835,-0.3854,-0.3873,-0.3895,-0.3871,-0.3908,-0.3909,-0.3901,-0.3937,-0.3938,-0.3972,-0.3927,-0.3928,-0.3928,0,-0.3614,-0.3637,-0.3679,-0.3706,-0.3716,-0.3738,-0.3766,-0.3788,-0.3814,-0.3822,-0.3843,-0.3851,-0.3882,-0.3872,-0.3915,-0.3898,-0.3915,-0.3926,-0.3928,-0.3932,-0.392,-0.3943,-0.3982,-0.3988,-0.3936,-0.3935,-0.3935,0,-0.3632,-0.3673,-0.3704,-0.3716,-0.3748,-0.3763,-0.3777,-0.3801,-0.3818,-0.3844,-0.3855,-0.3885,-0.3901,-0.3925,-0.3941,-0.3932,-0.3984,-0.3975,-0.3993,-0.3993,-0.4004,-0.4003,-0.4047,-0.4014,-0.4014,-0.4014,-0.4013,0,-0.3666,-0.3692,-0.3712,-0.3731,-0.3761,-0.3775,-0.3805,-0.382,-0.3841,-0.3865,-0.3873,-0.3895,-0.3915,-0.3941,-0.3954,-0.3989,-0.3996,-0.4006,-0.4009,-0.4005,-0.4004,-0.4016,-0.4015,-0.4015,-0.4015,-0.4014,-0.4014,0,-0.3691,-0.3705,-0.3739,-0.3766,-0.3773,-0.3794,-0.3818,-0.3838,-0.3852,-0.3882,-0.389,-0.3912,-0.3943,-0.3961,-0.4001,-0.401,-0.4048,-0.405,-0.4039,-0.4041,-0.4059,-0.4057,-0.4112,-0.4121,-0.4081,-0.4081,-0.4082,0,-0.3712,-0.3732,-0.376,-0.3775,-0.3789,-0.3814,-0.3831,-0.3846,-0.3864,-0.3894,-0.3911,-0.3941,-0.3967,-0.4016,-0.4037,-0.4068,-0.4071,-0.4088,-0.4076,-0.4072,-0.4072,-0.4071,-0.4074,-0.4091,-0.4091,-0.4091,-0.4092,0,-0.3748,-0.3754,-0.3777,-0.3803,-0.3823,-0.3845,-0.3867,-0.3879,-0.3898,-0.3918,-0.3948,-0.3968,-0.4007,-0.4038,-0.407,-0.4087,-0.4093,-0.4095,-0.4101,-0.4098,-0.4091,-0.4096,-0.4045,-0.4094,-0.4094,-0.4094,-0.4093,-0.4093,-0.3772,-0.379,-0.3813,-0.3839,-0.3857,-0.3877,-0.3897,-0.3912,-0.3937,-0.3969,-0.3977,-0.4009,-0.4035,-0.4079,-0.4096,-0.4123,-0.4121,-0.4129,-0.4132,-0.4134,-0.4134,-0.4086,-0.4129,-0.4129,-0.4129,-0.4129,-0.4129,0,-0.381,-0.3824,-0.3848,-0.3877,-0.3898,-0.3899,-0.3924,-0.3942,-0.3969,-0.3992,-0.4016,-0.4052,-0.4082,-0.4105,-0.4137,-0.4154,-0.4158,-0.4162,-0.4161,-0.4165,-0.4135,-0.4126,-0.4158,-0.4158,-0.4158,-0.4158,-0.4158,-0.4158,-0.3832,-0.3863,-0.3871,-0.3912,-0.3927,-0.3957,-0.3971,-0.399,-0.4008,-0.4047,-0.4071,-0.4085,-0.4109,-0.4142,-0.4171,-0.4177,-0.4189,-0.4193,-0.42,-0.4171,-0.4167,-0.4164,-0.4157,-0.4195,-0.4195,-0.4228,-0.4229,-0.4229]},{"header":{"parameterUnit":"m.s-1","parameterCategory":1,"la1":30.2991,"la2":30.254,"lo1":-89.0895,"lo2":-89.0444,"dy":0.0017,"dx":0.0017,"nx":28,"ny":28,"refTime":"2025-11-04T09:00:00:Z","depth":0,"parameterNumber":3,"parameterNumberName":"V-component_of_WINDS"},"data":[0,0,0,0,0,0,0,0,0,0,0,0,0,0,0,0,0,0,0,0,0,0,0,0,0,0,0,0,0,0,0,0,0,0,0,0,0,0,0,0,0,0,0,0,0,0,0,0,0,0,0,0,0,0,0,0,0,0,3.4253,3.4253,0,3.4296,3.4296,3.4297,3.4254,3.4253,3.4251,3.4249,3.429,3.4292,3.4295,0,0,0,0,0,0,0,0,0,0,0,0,0,3.413,3.4132,3.4252,3.4253,3.4254,3.4296,3.4296,3.4297,3.4255,3.4253,3.4251,3.4249,3.4289,3.4292,3.4295,0,0,0,0,0,0,0,0,0,0,0,0,0,3.4179,3.4133,3.4252,3.4238,3.4237,3.4295,3.4296,3.4297,3.4255,3.4253,3.425,3.4248,3.4288,3.4292,3.4296,3.437,0,0,3.4308,3.4309,0,0,0,0,0,0,0,0,3.4176,3.4184,3.4239,3.4239,3.4238,3.4267,3.4268,3.4321,3.4256,3.4248,3.4249,3.4247,3.4284,3.4288,3.4302,3.4372,3.4373,3.4308,3.431,3.4312,3.4313,0,0,0,0,0,0,0,3.4173,3.4182,3.4269,3.424,3.4239,3.4228,3.4232,3.4278,3.4279,3.4248,3.4246,3.4251,3.4283,3.4298,3.4302,3.4374,3.4308,3.4311,3.4314,3.4315,3.4505,3.4508,0,0,0,0,0,0,3.4172,3.4179,3.4268,3.4271,3.4201,3.4232,3.4237,3.426,3.4279,3.4279,3.4254,3.4249,3.4292,3.4298,3.4303,3.439,3.4312,3.4316,3.4318,3.4502,3.4506,3.4509,0,0,0,0,0,0,3.4169,3.418,3.4266,3.4224,3.4234,3.4237,3.4263,3.4262,3.4277,3.4283,3.4282,3.4268,3.4291,3.4298,3.4353,3.439,3.4318,3.4321,3.4499,3.4503,3.4507,3.4564,0,0,0,0,0,0,3.4166,3.4179,3.4208,3.4225,3.4237,3.4317,3.4266,3.4265,3.4284,3.4279,3.4297,3.4297,3.4289,3.4348,3.4357,3.4395,3.4324,3.4496,3.4501,3.4506,3.4558,3.4569,3.4578,0,0,0,0,0,3.4162,3.4222,3.421,3.4221,3.4273,3.4319,3.4325,3.4316,3.4288,3.4316,3.4319,3.4296,3.4386,3.4354,3.4364,3.4403,3.4493,3.45,3.4506,3.4554,3.4567,3.4578,0,0,0,0,0,0,3.4208,3.4224,3.4211,3.4279,3.4298,3.4312,3.4347,3.4331,3.4357,3.4351,3.4338,3.4342,3.4401,3.4408,3.4372,3.4475,3.4435,3.4443,3.4468,3.448,3.449,3.4486,3.4327,0,0,0,0,0,3.4227,3.4264,3.4275,3.4334,3.4345,3.4345,3.4364,3.4356,3.4375,3.4382,3.439,3.4408,3.444,3.4461,3.4491,3.456,3.4562,3.4592,3.4602,3.461,3.4617,3.4652,3.4665,3.4528,3.4528,3.4528,0,0,3.4265,3.4278,3.4302,3.4344,3.4358,3.4395,3.4351,3.4393,3.442,3.4388,3.444,3.4447,3.4466,3.4529,3.4557,3.4536,3.4655,3.4618,3.4624,3.4626,3.466,3.4672,3.4684,3.4533,3.4532,3.4531,0,0,3.4352,3.4367,3.4417,3.4432,3.4454,3.4454,3.4466,3.4482,3.4486,3.4539,3.4515,3.4547,3.4603,3.4617,3.4631,3.4725,3.4704,3.4735,3.4786,3.4821,3.4831,3.4841,3.4872,3.4883,3.4742,3.4743,3.4743,0,3.4396,3.4452,3.4444,3.4487,3.4505,3.448,3.4529,3.4544,3.4574,3.4587,3.4565,3.4634,3.4645,3.4709,3.4732,3.4746,3.4758,3.4732,3.4831,3.484,3.4849,3.4878,3.489,3.4746,3.4746,3.4745,3.4745,0,3.4504,3.4543,3.4581,3.4611,3.4634,3.468,3.4678,3.4702,3.4692,3.4694,3.4747,3.476,3.4791,3.4807,3.4797,3.487,3.4856,3.4833,3.4791,3.4865,3.4892,3.4904,3.4751,3.475,3.4749,3.4748,0,0,3.4619,3.4646,3.466,3.4673,3.4696,3.4725,3.477,3.4802,3.4822,3.4844,3.4879,3.4928,3.4906,3.4923,3.4915,3.4946,3.5016,3.4918,3.4918,3.4933,3.5094,3.511,3.5123,3.5004,3.5006,3.5008,3.5092,0,3.4706,3.4784,3.4778,3.4851,3.4886,3.4863,3.4902,3.4919,3.4922,3.4952,3.4955,3.4988,3.4959,3.4968,3.4998,3.5001,3.5048,3.4996,3.5034,3.5036,3.5027,3.5138,3.5155,3.5233,3.5103,3.5105,3.5106,0,3.4816,3.4843,3.492,3.4937,3.4951,3.4986,3.5014,3.5044,3.5063,3.5063,3.5082,3.5069,3.5112,3.5072,3.513,3.5095,3.5111,3.5115,3.5118,3.5119,3.5073,3.5139,3.5259,3.5269,3.5123,3.5122,3.5121,0,3.489,3.4945,3.4998,3.501,3.5032,3.5057,3.5067,3.5084,3.5103,3.5128,3.514,3.5169,3.5184,3.5207,3.5201,3.5173,3.526,3.522,3.5259,3.526,3.5276,3.5275,3.5397,3.5292,3.5291,3.5291,3.5291,0,3.4985,3.5032,3.5031,3.5063,3.5115,3.5108,3.5159,3.5166,3.5182,3.5213,3.5196,3.5226,3.5218,3.5248,3.5244,3.5292,3.53,3.5299,3.5297,3.5299,3.5299,3.5307,3.5301,3.5294,3.5294,3.5293,3.5293,0,3.5075,3.5076,3.5132,3.5149,3.5154,3.5191,3.5204,3.5234,3.5236,3.5277,3.5286,3.5289,3.5323,3.5321,3.5359,3.5356,3.5414,3.5407,3.5408,3.5405,3.5444,3.5439,3.5574,3.559,3.5476,3.5477,3.5478,0,3.5134,3.517,3.5191,3.5211,3.5223,3.5257,3.5277,3.5271,3.5292,3.5317,3.5343,3.5376,3.5401,3.5456,3.5461,3.549,3.5481,3.5527,3.5485,3.5486,3.5479,3.5476,3.5478,3.5534,3.5535,3.5536,3.5537,0,3.5238,3.5237,3.5267,3.5297,3.5322,3.5345,3.5366,3.5384,3.5381,3.5405,3.544,3.546,3.55,3.5531,3.5559,3.5567,3.5551,3.555,3.556,3.5561,3.5559,3.5559,3.5427,3.5547,3.5546,3.5545,3.5544,3.5544,3.5312,3.5343,3.5362,3.5395,3.5411,3.5432,3.546,3.5466,3.5496,3.5528,3.5523,3.5562,3.5579,3.5615,3.5626,3.5655,3.5639,3.5654,3.5658,3.5661,3.5664,3.5558,3.5661,3.5661,3.566,3.566,3.566,0,3.5413,3.5425,3.5456,3.5487,3.5513,3.5498,3.552,3.5543,3.5577,3.5596,3.5622,3.5661,3.5692,3.57,3.5729,3.5751,3.5744,3.5759,3.5755,3.5757,3.5678,3.5665,3.5764,3.5764,3.5764,3.5764,3.5764,3.5764,3.5469,3.5519,3.552,3.5577,3.5588,3.5627,3.5641,3.5659,3.5673,3.5719,3.5745,3.575,3.5764,3.5794,3.5821,3.5823,3.5833,3.585,3.5848,3.5774,3.5763,3.5753,3.5741,3.5853,3.5853,3.5925,3.5925,3.5926]}]]